www.pogodaiklimat.ru

Погода и климат >> Архив погоды >> Малайзия >> Sitiawan


ПОГОДА в Sitiawan

  • Прогноз погоды в Sitiawan
  • Монитор погоды в Sitiawan
  • Климат города

АРХИВ ПОГОДЫ в Sitiawan

Время (UTC), дата Ветер
(напр.,м/с)
 
Видим.   Явления Облачность Т
(С)
Тd
(С)
f
(%)
Тe
(С)
Тes
(С)
Комфортность P
(гПа)
Po
(гПа)
Тmin
(С)
Tmax
(С)
R
(мм)
R24
(мм)
S
(см)
00 5.12 В 1 12 км мгла 9/4 500 м
[Cb cap Ac trans Ci sp]
+25.7 +24.5 93 +36 +36 очень
душно
1007.0 1006.1 +25.5
03 5.12 ЮВ 3 15 км мгла 9/3 660 м
[Cu hum Ac trans Ci sp]
+31.7 +25.6 70 +46 +50 опасность
перегрева
1008.8 1007.9
06 5.12 Ю 3 15 км мгла 9/3 700 м
[Cu hum Ac lent Ci sp]
+33.3 +24.7 61 +46 +52 опасность
перегрева
1007.3 1006.4
09 5.12 Ю 3 15 км мгла 9/3 660 м
[Cu med, cong Ac trans Cs]
+32.9 +25.1 64 +47 +49 опасность
перегрева
1004.8 1003.9
12 5.12 ЮВ 1 10 км мгла 9/3 900 м
[Sc Ac lent Ci sp]
+29.8 +24.2 72 +42 +42 опасность
перегрева
1006.1 1005.2 +33.8
15 5.12 В 1 11 км мгла 9/3 960 м
[Sc Ac trans Cs]
+27.9 +25.1 85 +40 +40 очень
душно
1008.3 1007.4
18 5.12 штиль 0 10 км мгла 9/3 900 м
[Sc Ac trans Cs]
+26.9 +25.0 89 +39 +39 очень
душно
1007.9 1007.0
21 5.12 В 1 9000 м мгла 9/3 960 м
[Sc Ac lent Cs]
+25.9 +24.6 93 +37 +37 очень
душно
1006.5 1005.6
00 6.12 В 1 10 км мгла 9/3 960 м
[Sc Ac lent Cs]
+25.8 +24.8 94 +37 +37 очень
душно
1007.7 1006.8 +25.6
03 6.12 ЮВ 3 14 км мгла 9/3 660 м
[Cu hum Ac und Ci sp]
+31.3 +25.7 72 +46 +50 опасность
перегрева
1009.4 1008.5
06 6.12 Ю 3 15 км мгла 9/4 660 м
[Cu med, cong Ac lent Cs]
+32.7 +24.7 63 +46 +51 опасность
перегрева
1008.1 1007.2
09 6.12 Ю 2 15 км мгла 8/3 500 м
[Cb calv Ac trans Ci sp]
+32.1 +25.2 67 +46 +49 опасность
перегрева
1006.5 1005.6
12 6.12 штиль 0 12 км мгла 8/3 960 м
[Sc diur, vesp Ac trans Ci fib]
+29.4 +25.7 81 +44 +44 опасность
перегрева
1007.3 1006.4 +32.8
15 6.12 штиль 0 12 км мгла 8/3 960 м
[Sc diur, vesp Ac trans Ci fib]
+29.4 +25.7 81 +44 +44 опасность
перегрева
1007.3 1006.4 +32.8
18 6.12 штиль 0 10 км мгла 9/3 1020 м
[Sc Ac lent Ci sp]
+26.4 +25.1 93 +38 +38 очень
душно
1008.9 1008.0
21 6.12 штиль 0 7000 м мгла 9/3 210 м
[Sc Ac und Ci sp]
+26.0 +25.1 95 +37 +37 очень
душно
1007.4 1006.5
00 7.12 штиль 0 10 км дымка 9/3 500 м
[Cb cap Ac und Ci sp]
+26.2 +25.6 97 +39 +39 очень
душно
1008.3 1007.4 +25.9
03 7.12 В 2 15 км мгла 9/3 500 м
[Cb cap Ac trans Ci sp]
+30.6 +26.3 78 +47 +52 опасность
перегрева
1010.5 1009.6
06 7.12 ЮЗ 2 5000 м гроза, ливневой дождь 10/5 500 м
[Cb cap Ac lent Cs]
+25.5 +24.5 94 +36 +40 очень
душно
1009.1 1008.2 36
09 7.12 З 2 13 км мгла 9/4 500 м
[Cb cap Ac lent Cs]
+28.6 +25.1 81 +41 +43 опасность
перегрева
1007.1 1006.2
12 7.12 СВ 2 10 км слабый дождь {гроза, ливн. осадки} 10/5 270 м
[Cb cap Ac lent Cs]
+26.7 +25.7 94 +39 +39 очень
душно
1010.3 1009.4 +32.5 1
15 7.12 В 1 6000 м слабый дождь 10/5 150 м
[Sc As op Cs]
+25.4 +24.9 97 +36 +36 очень
душно
1011.6 1010.7
18 7.12 штиль 0 6000 м дымка {дождь} 9/3 120 м
[Sc Ac lent Ci sp]
+24.9 +24.6 98 +35 +35 очень
душно
1011.2 1010.3 5
21 7.12 СВ 1 6000 м дымка 9/3 120 м
[Sc Ac lent Cs]
+24.5 +24.2 98 +34 +34 очень
душно
1010.1 1009.2
00 8.12 штиль 0 9000 м дымка 9/3 500 м
[Cb cap Ac lent Cs]
+24.8 +24.4 98 +35 +35 очень
душно
1011.1 1010.2 +24.4 43
03 8.12 С 1 12 км мгла 9/3 500 м
[Cb cap Ac lent Ci sp]
+29.1 +25.4 80 +42 +48 опасность
перегрева
1012.3 1011.4
06 8.12 З 2 12 км мгла 9/5 500 м
[Cb cap Ac lent Ci sp]
+31.1 +26.5 77 +48 +53 опасность
перегрева
1009.4 1008.5
09 8.12 штиль 0 11 км гроза без осадков {дождь} 9/3 500 м
[Cb cap Ac lent Cs]
+27.7 +26.4 93 +42 +45 опасность
перегрева
1008.2 1007.3
12 8.12 штиль 0 10 км мгла {гроза, дождь} 9/3 960 м
[Sc Ac lent Cs]
+26.9 +25.5 92 +39 +39 очень
душно
1009.6 1008.7 +31.5 2
15 8.12 штиль 0 10 км зарница 9/4 500 м
[Cb cap Ac trans Cs]
+25.9 +25.3 96 +37 +37 очень
душно
1011.3 1010.4
18 8.12 штиль 0 9000 м дымка 9/4 180 м
[Sc Ac trans Cs]
+25.5 +24.7 95 +36 +36 очень
душно
1010.3 1009.4
21 8.12 СВ 1 8000 м зарница 9/5 150 м
[Cb cap Ac lent Cs]
+24.9 +24.5 98 +35 +35 очень
душно
1009.6 1008.7
00 9.12 штиль 0 8000 м слабый дождь {гроза} 10/6 240 м
[Cb cap Ac lent Cs]
+25.7 +25.3 98 +37 +37 очень
душно
1011.8 1010.9 +24.8 2
03 9.12 штиль 0 14 км мгла 9/3 660 м
[Cu med, cong Ac lent Ci sp]
+29.1 +25.5 81 +43 +49 опасность
перегрева
1012.4 1011.5
06 9.12 В 1 15 км мгла 9/4 540 м
[Cu med, cong Ac und Ci sp]
+31.9 +26.1 71 +47 +54 опасность
перегрева
1009.9 1009.0 0.0
09 9.12 ЮЗ 2 15 км мгла 9/3 500 м
[Cb calv Ac lent Ci sp]
+30.8 +25.4 73 +45 +47 опасность
перегрева
1008.4 1007.5
12 9.12 СЗ 1 10 км зарница 9/3 500 м
[Cb cap Ac lent Cs]
+28.6 +25.8 85 +43 +43 опасность
перегрева
1010.9 1010.0 +32.1
15 9.12 штиль 0 8000 м гроза, ливневой дождь 9/4 500 м
[Cb cap Ac lent Cs]
+24.6 +23.9 96 +34 +34 очень
душно
1012.6 1011.7
18 9.12 штиль 0 8000 м дымка {гроза, дождь} 9/3 180 м
[St Ac lent Cs]
+23.4 +23.0 98 +33 +33 очень
душно
1011.3 1010.4 8
21 9.12 штиль 0 8000 м дымка 9/4 120 м
[Sc Ac trans Cs]
+23.8 +23.4 98 +32 +32 очень
душно
1010.5 1009.6
00 10.12 штиль 0 9000 м дымка 9/4 60 м
[Cb cap Ac lent Cs]
+24.2 +23.9 98 +33 +33 очень
душно
1012.5 1011.6 +23.4 8
03 10.12 ЮВ 1 12 км мгла 9/3 500 м
[Cb cap Ac trans Ci sp]
+29.4 +25.4 79 +43 +49 опасность
перегрева
1013.7 1012.8
06 10.12 Ю 3 15 км мгла 9/4 500 м
[Cb cap Ac lent Ci sp]
+30.8 +25.9 75 +46 +51 опасность
перегрева
1010.8 1009.9
09 10.12 ЮЗ 2 14 км мгла 9/3 500 м
[Cb cap Ac lent Ci sp]
+31.1 +25.5 72 +45 +48 опасность
перегрева
1009.0 1008.1
12 10.12 штиль 0 14 км зарница 9/3 500 м
[Cb cap Ac lent Cs]
+28.3 +25.9 87 +42 +42 опасность
перегрева
1010.7 1009.8 +31.5
15 10.12 штиль 0 14 км гроза без осадков 9/4 500 м
[Cb cap Ac trans Cs]
+26.1 +24.9 93 +37 +37 очень
душно
1012.5 1011.6
18 10.12 СВ 1 12 км зарница {гроза} 9/4 270 м
[Cb cap Ac trans Cs]
+25.3 +24.8 97 +36 +36 очень
душно
1011.7 1010.8
21 10.12 СВ 1 9000 м зарница 9/4 210 м
[Sc Ac trans Cs]
+25.0 +24.5 97 +35 +35 очень
душно
1010.2 1009.3
00 11.12 ЮВ 1 9000 м гроза, ливневой дождь 9/5 270 м
[Cb cap Ac lent Cs]
+25.1 +24.4 96 +35 +35 очень
душно
1012.0 1011.1 +24.2 0.2
03 11.12 В 1 10 км мгла {гроза, дождь} 9/4 500 м
[Cb cap Ac lent Cs]
+28.0 +25.2 85 +41 +46 опасность
перегрева
1013.6 1012.7
06 11.12 С 2 12 км мгла {гроза, дождь} 9/4 500 м
[Cb cap Ac lent Ci sp]
+31.2 +26.2 75 +47 +54 опасность
перегрева
1010.2 1009.3 0.0
09 11.12 З 5 14 км мгла 9/5 500 м
[Cb cap Ac trans Ci sp]
+30.6 +24.5 70 +43 +44 опасность
перегрева
1008.7 1007.8
12 11.12 штиль 0 12 км мгла 9/4 500 м
[Cb cap Ac trans Cs]
+28.2 +25.4 85 +41 +41 опасность
перегрева
1010.5 1009.6 +32.5
15 11.12 В 2 12 км мгла 9/3 1020 м
[Sc Ac lent Cs]
+25.8 +24.5 93 +36 +36 очень
душно
1013.0 1012.1
18 11.12 штиль 0 9000 м дымка 9/3 240 м
[Sc Ac lent Ci sp]
+24.8 +24.3 97 +34 +34 очень
душно
1012.3 1011.4

 

Местоположение метеостанции Sitiawan (Малайзия): широта 4.22 долгота 100.70 высота над уровнем моря 8 м.

В архиве по умолчанию представлена погода в Sitiawan за последнюю неделю. Архивные данные за месяц целиком и за предыдущие месяцы, начиная с января 2011 года, Вы можете получить, выбрав интересующий диапазон дат из раскрывающегося списка и нажав кнопку "Ввод!".

Внимание! Время в таблицах - всемирное. Для получения местного времени необходимо прибавить поправку, которая в Sitiawan равна 7 ч.

Смотрите также архив погоды в соседних городах и на ближайших метеорологических станциях:

Погода в Ipoh (Малайзия) (59 км)
Погода в Cameron Highlands (Малайзия) (79 км)
Погода в Penang (Малайзия) (130 км)
Погода в Butterworth Air Base (Малайзия) (143 км)
Погода в Kuala Lumpur (Малайзия) (155 км)
Погода в Kuala Lumpur Int Airport (Малайзия) (200 км)
Погода в Alor Star (Малайзия) (223 км)
Погода в Belawan (Индонезия) (227 км)
Погода в Medan Polonia Int Airport (Индонезия) (236 км)
Погода в Langkawi (Малайзия) (258 км)

Пояснения к столбцам:

Ветер - указаны скорость ветра в м/с - средняя за 10 мин, порывы в срок и между сроками (в фигурных скобках) и направление, откуда дует ветер: С - северный, СВ - северо-восточный, В - восточный, ЮВ - юго-восточный, Ю - южный, ЮЗ - юго-западный, З - западный, СЗ - северо-западный.
Видимость - горизонтальная дальность видимости в метрах или километрах. При видимости от 1 до 10 км при отсутствии осадков обычно наблюдается дымка, при ухудшении видимости до 1 км и менее - туман. В сухую погоду видимость может ухудшаться дымом, пылью или мглою.
Явления - указаны атмосферные явления, наблюдавшиеся в срок или в последний час перед сроком; фигурными скобками обозначены явления, наблюдавшиеся между сроками (за 1-3 часа до срока); квадратными скобками обозначены град или гололедные отложения с указанием их диаметра в мм.
Облачность - указаны через наклонную черту общая и нижняя облачность в баллах и высота нижней границы облаков в метрах; квадратными скобками обозначены формы облаков: Ci - перистые, Cs - перисто-слоистые, Cc - перисто-кучевые, Ac - высококучевые, As - высокослоистые, Sc - слоисто-кучевые, Ns - слоисто-дождевые, Cu - кучевые, Cb - кучево-дождевые. Подробнее классификацию облаков см. в Атласе облаков (PDF).
T - Температура воздуха - температура, измеренная на высоте 2 м над землей.
Td - Температура точки росы - температура, при понижении до которой содержащийся в воздухе водяной пар достигнет насыщения.
f - Относительная влажность воздуха - влажноcть воздуха, измеренная на высоте 2 м над землей.
Te - Эффективная температура - температура, которую ощущает одетый по сезону человек в тени. Характеристика душности погоды. При расчете учитывается влияние влажности воздуха и скорости ветра на теплоощущения человека.
Tes - Эффективная температура на солнце - температура, которую ощущает человек, с поправкой на солнечный нагрев. Характеристика знойности погоды. Зависит от высоты солнца над горизонтом, облачности и скорости ветра. Ночью, в пасмурную погоду, а также при ветре 12 м/с и более поправка равна нулю.
P - Атмосферное давление - приведенное к уровню моря атмосферное давление.
Po - Атмосферное давление - измеренное на уровне метеостанции атмосферное давление.
Tmin - Минимальная температура - минимум температуры воздуха на высоте 2 м над землей.
Tmax - Максимальная температура - максимум температуры воздуха на высоте 2 м над землей.
R - Количество осадков - Количество выпавших осадков за период времени, мм. При наведении курсора мыши на число - период времени, за который выпало указанное количество осадков.
R24 - Количество осадков - Количество выпавших осадков за 24 часа, мм.
S - Снежный покров - Высота снежного покрова, см. При наведении курсора мыши на число - состояние снежного покрова и степень покрытия местности в баллах.